This is the latest recevied weather packets stored in our database for station/object OE8NDR-11. If no packets are shown the sender has not sent any weather packets the latest 1 day(s).
| Time | Temp. | Humidity | Pressure | Rain* | Wind** | Luminosity | Snow |
|---|---|---|---|---|---|---|---|
| 1778096288 | 16.67° C | 83% | 1017.4 hPa | 0 mm | - | - | - |
| 1778095688 | 16.67° C | 82% | 1017.4 hPa | 0 mm | - | - | - |
| 1778095088 | 16.67° C | 81% | 1017.4 hPa | 0 mm | - | - | - |
| 1778094488 | 16.67° C | 80% | 1017.4 hPa | 0 mm | - | - | - |
| 1778094188 | 16.67° C | 80% | 1017.3 hPa | 0 mm | - | - | - |
| 1778093888 | 17.22° C | 80% | 1017.3 hPa | 0 mm | - | - | - |
| 1778093588 | 17.22° C | 80% | 1017.2 hPa | 0 mm | - | - | - |
| 1778090588 | 17.78° C | 77% | 1016.8 hPa | 0 mm | - | - | - |
| 1778074989 | 17.22° C | 76% | 1017.5 hPa | 0.25 mm | - | - | - |
| 1778073489 | 17.78° C | 79% | 1017.5 hPa | 0.51 mm | - | - | - |
| 1778073189 | 17.22° C | 78% | 1017.5 hPa | 0.51 mm | - | - | - |
| 1778072889 | 17.22° C | 78% | 1017.5 hPa | 0.51 mm | - | - | - |
| 1778072589 | 17.22° C | 79% | 1017.6 hPa | 0.51 mm | - | - | - |
| 1778072289 | 17.22° C | 77% | 1017.7 hPa | 0.51 mm | - | - | - |
| 1778071989 | 17.22° C | 79% | 1017.5 hPa | 0.51 mm | - | - | - |
| 1778071689 | 17.78° C | 78% | 1017.7 hPa | 0.51 mm | - | - | - |
| 1778071389 | 17.78° C | 77% | 1017.7 hPa | 0.25 mm | - | - | - |
| 1778071089 | 17.78° C | 75% | 1017.7 hPa | 0 mm | - | - | - |
| 1778070789 | 17.78° C | 74% | 1017.6 hPa | 0 mm | - | - | - |
| 1778070489 | 18.33° C | 72% | 1017.7 hPa | 0 mm | - | - | - |
| 1778070189 | 18.33° C | 71% | 1017.6 hPa | 0 mm | - | - | - |
| 1778069889 | 18.89° C | 68% | 1017.5 hPa | 0 mm | - | - | - |
| 1778069589 | 18.89° C | 68% | 1017.6 hPa | 0 mm | - | - | - |
| 1778069289 | 18.89° C | 68% | 1017.5 hPa | 0 mm | - | - | - |
| 1778068989 | 18.89° C | 68% | 1017.4 hPa | 0 mm | - | - | - |
* Rain latest hour (hover to see other rain measurements)
** Current wind speed in m/s (hover to see current wind gust speed)